Weather History for Altus AFB, OK

Change the Weather History Date:

Friday, December 20, 2013

  Actual Average Record
Temperature  
Mean Temperature 40 °F -  
Max Temperature 51 °F 48 °F 78 °F (2004)
Min Temperature 29 °F 25 °F 14 °F (1996)
Degree Days  
Heating Degree Days 25    
Moisture  
Dew Point 28 °F    
Average Humidity 86    
Maximum Humidity 100    
Minimum Humidity 55    
Precipitation  
Precipitation 0.53 in - - ()
Sea Level Pressure  
Sea Level Pressure 29.86 in    
Wind  
Wind Speed 8 mph (NE)    
Max Wind Speed 23 mph    
Max Gust Speed 30 mph    
Visibility 7 miles    
Events Rain    
Averages and records for this station are not official NWS values.
T = Trace of Precipitation, MM = Missing Value Source: NWS Daily Summary

Daily Weather History Graph

Daily Weather History Graph

Search for Another Location

Airport:

Trip Planner

Search our weather history database for the weather conditions in past years. The results will help you decide how hot, cold, wet, or windy it might be!

Date:

Astronomy

Dec. 20, 2013 Rise Set
Actual Time 7:39 AM CST 5:29 PM CST
Civil Twilight 7:11 AM CST 5:57 PM CST
Nautical Twilight 6:40 AM CST 6:29 PM CST
Astronomical Twilight 6:09 AM CST 7:00 PM CST
Moon 8:45 PM CST (12/20) 9:41 AM CST (12/20)
Length of Visible Light 10h 46m
Length of Day
9h 49m
Waning Gibbous, 90% of the Moon is Illuminated
Dec 20
Waning Gibbous
Dec 25
Last Quarter
Jan 1
New
Jan 7
First Quarter
Jan 15
Full

Hourly Weather History & Observations

Time (CST) Temp. Windchill Dew Point Humidity Pressure Visibility Wind Dir Wind Speed Gust Speed Precip Events Conditions
12:58 AM 51.1 °F - 48.2 °F 90% 29.68 in 10.0 mi SW 3.5 mph - N/A   Clear
1:58 AM 46.9 °F - 46.6 °F 99% 29.70 in 10.0 mi South 5.8 mph - N/A   Clear
2:48 AM 41.0 °F 38.0 °F 41.0 °F 100% 29.71 in 9.0 mi SSE 4.6 mph - N/A   Clear
2:58 AM 41.7 °F 35.2 °F 41.7 °F 100% 29.71 in 8.0 mi NW 11.5 mph 25.3 mph N/A   Clear
3:08 AM 42.8 °F - 42.8 °F 100% 29.75 in 10.0 mi Variable 2.3 mph - N/A   Clear
3:35 AM 44.6 °F 36.9 °F 39.2 °F 81% 29.79 in 10.0 mi North 18.4 mph 26.5 mph N/A   Clear
3:58 AM 39.2 °F 29.8 °F 33.8 °F 81% 29.81 in 10.0 mi North 18.4 mph 25.3 mph N/A   Clear
4:58 AM 35.2 °F 26.2 °F 30.4 °F 82% 29.85 in 10.0 mi North 13.8 mph - N/A   Clear
5:58 AM 33.1 °F 20.6 °F 28.4 °F 83% 29.88 in 10.0 mi North 23.0 mph 29.9 mph N/A   Clear
6:13 AM 32.0 °F 20.1 °F 28.4 °F 87% 29.87 in 10.0 mi North 19.6 mph 29.9 mph N/A   Mostly Cloudy
6:33 AM 32.0 °F 20.1 °F 28.4 °F 87% 29.87 in 10.0 mi North 19.6 mph 24.2 mph N/A   Overcast
6:58 AM 32.7 °F 22.1 °F 27.0 °F 79% 29.89 in 10.0 mi North 16.1 mph - N/A   Overcast
7:23 AM 32.0 °F 20.8 °F 26.6 °F 80% 29.89 in 10.0 mi North 17.3 mph 24.2 mph N/A   Overcast
7:58 AM 31.6 °F 23.1 °F 25.3 °F 78% 29.94 in 10.0 mi North 10.4 mph - N/A   Overcast
8:23 AM 32.0 °F 21.2 °F 24.8 °F 75% 29.93 in 10.0 mi North 16.1 mph 18.4 mph N/A   Overcast
8:58 AM 31.8 °F 21.0 °F 22.8 °F 69% 29.96 in 10.0 mi NNE 16.1 mph - N/A   Overcast
9:23 AM 32.0 °F 21.6 °F 21.2 °F 64% 29.96 in 10.0 mi North 15.0 mph - N/A   Overcast
9:58 AM 32.0 °F 22.1 °F 20.5 °F 63% 29.99 in 10.0 mi North 13.8 mph - N/A   Overcast
10:08 AM 32.0 °F 22.1 °F 21.2 °F 64% 29.99 in 10.0 mi North 13.8 mph - N/A   Overcast
10:58 AM 31.6 °F 21.2 °F 19.0 °F 60% 30.00 in 10.0 mi North 15.0 mph - N/A   Overcast
11:58 AM 31.5 °F 22.3 °F 18.5 °F 59% 29.98 in 10.0 mi North 11.5 mph - N/A   Overcast
12:18 PM 32.0 °F 21.2 °F 17.6 °F 55% 29.95 in 10.0 mi NNE 16.1 mph - N/A   Overcast
12:58 PM 31.3 °F 19.9 °F 18.1 °F 58% 29.95 in 10.0 mi NNW 17.3 mph - N/A   Overcast
1:58 PM 30.2 °F 21.3 °F 17.4 °F 59% 29.97 in 10.0 mi North 10.4 mph - N/A   Overcast
2:58 PM 30.7 °F 20.4 °F 17.6 °F 58% 29.94 in 10.0 mi North 13.8 mph - N/A   Scattered Clouds
3:58 PM 31.6 °F 20.7 °F 18.1 °F 57% 29.88 in 10.0 mi North 16.1 mph - N/A   Partly Cloudy
4:16 PM 32.0 °F 26.4 °F 19.4 °F 60% 29.88 in 10.0 mi NE 5.8 mph - N/A Rain Light Rain
4:41 PM 32.0 °F 23.6 °F 23.0 °F 69% 29.86 in 10.0 mi NNE 10.4 mph - N/A Rain Light Rain
4:46 PM 32.0 °F 24.2 °F 23.0 °F 69% 29.86 in 10.0 mi NNE 9.2 mph - N/A Rain Light Rain
4:58 PM 31.1 °F 22.4 °F 23.4 °F 73% 29.91 in 10.0 mi NNE 10.4 mph - 0.00 in Rain Light Freezing Rain
5:40 PM 32.0 °F 24.2 °F 24.8 °F 75% 29.84 in 7.0 mi ENE 9.2 mph - N/A Rain Light Freezing Rain
5:50 PM 32.0 °F 23.6 °F 24.8 °F 75% 29.86 in 10.0 mi North 10.4 mph - N/A   Overcast
5:55 PM 32.0 °F 24.2 °F 24.8 °F 75% 29.86 in 10.0 mi North 9.2 mph - N/A   Overcast
5:58 PM 30.6 °F 23.1 °F 25.0 °F 80% 29.89 in 10.0 mi North 8.1 mph - 0.00 in   Overcast
6:48 PM 32.0 °F 25.6 °F 24.8 °F 75% 29.88 in 10.0 mi East 6.9 mph - N/A   Overcast
6:58 PM 30.4 °F 23.6 °F 25.2 °F 81% 29.90 in 9.0 mi ENE 6.9 mph - 0.01 in   Overcast
6:59 PM 32.0 °F 26.4 °F 24.8 °F 75% 29.87 in 9.0 mi ENE 5.8 mph - N/A Rain Light Freezing Rain
7:29 PM 30.2 °F 24.3 °F 26.6 °F 86% 29.88 in 9.0 mi ENE 5.8 mph - N/A Rain Light Freezing Rain
7:30 PM 30.2 °F 25.4 °F 26.6 °F 86% 29.88 in 9.0 mi ENE 4.6 mph - N/A Rain Light Freezing Rain
7:40 PM 30.2 °F 25.4 °F 26.6 °F 86% 29.90 in 8.0 mi ENE 4.6 mph - N/A Rain Light Freezing Rain
7:50 PM 30.2 °F 25.4 °F 24.8 °F 80% 29.89 in 7.0 mi NNE 4.6 mph - N/A Rain Light Freezing Rain
7:58 PM 30.0 °F 26.5 °F 25.7 °F 84% 29.92 in 6.0 mi NNE 3.5 mph - 0.07 in Rain Light Freezing Rain
8:09 PM 30.2 °F 25.4 °F 26.6 °F 86% 29.89 in 6.0 mi East 4.6 mph - N/A   Overcast
8:14 PM 30.2 °F 25.4 °F 26.6 °F 86% 29.89 in 5.0 mi ESE 4.6 mph - N/A   Overcast
8:18 PM 30.2 °F 25.4 °F 26.6 °F 86% 29.90 in 4.0 mi ESE 4.6 mph - N/A Rain Light Freezing Rain
8:21 PM 30.2 °F 24.3 °F 26.6 °F 86% 29.89 in 4.0 mi ESE 5.8 mph - N/A Rain Light Freezing Rain
8:26 PM 30.2 °F 23.4 °F 26.6 °F 86% 29.88 in 4.0 mi ESE 6.9 mph - N/A Rain Light Freezing Rain
8:32 PM 30.2 °F 21.9 °F 28.4 °F 93% 29.87 in 4.0 mi ESE 9.2 mph - N/A Rain Light Freezing Rain
8:37 PM 30.2 °F 22.6 °F 28.4 °F 93% 29.86 in 4.0 mi ESE 8.1 mph - N/A Rain Light Freezing Rain
8:45 PM 30.2 °F 22.6 °F 28.4 °F 93% 29.85 in 4.0 mi ESE 8.1 mph - N/A Rain Light Freezing Rain
8:50 PM 30.2 °F 24.3 °F 28.4 °F 93% 29.85 in 4.0 mi ESE 5.8 mph - N/A Rain Light Freezing Rain
8:55 PM 30.2 °F 25.4 °F 28.4 °F 93% 29.85 in 5.0 mi East 4.6 mph - N/A Rain Light Freezing Rain
8:58 PM 29.8 °F - 28.8 °F 96% 29.88 in 5.0 mi East 2.3 mph - 0.20 in Rain Light Freezing Rain
9:00 PM 30.2 °F 25.4 °F 28.4 °F 93% 29.85 in 5.0 mi ENE 4.6 mph - N/A Rain Light Freezing Rain
9:20 PM 30.2 °F - 30.2 °F 100% 29.81 in 4.0 mi NNE 1.2 mph - N/A Rain Light Freezing Rain
9:32 PM 32.0 °F - 30.2 °F 93% 29.82 in 5.0 mi Calm Calm - N/A Rain Light Freezing Rain
9:36 PM 30.2 °F - 30.2 °F 100% 29.82 in 5.0 mi Calm Calm - N/A Rain Light Freezing Rain
9:42 PM 30.2 °F - 30.2 °F 100% 29.83 in 5.0 mi Calm Calm - N/A Rain Light Freezing Rain
9:47 PM 32.0 °F - 30.2 °F 93% 29.84 in 5.0 mi Calm Calm - N/A Rain Light Freezing Rain
9:51 PM 32.0 °F - 32.0 °F 100% 29.84 in 5.0 mi Calm Calm - N/A Rain Light Freezing Rain
9:58 PM 30.7 °F - 30.6 °F 99% 29.86 in 5.0 mi Calm Calm - 0.13 in Rain Light Freezing Rain
10:00 PM 32.0 °F - 32.0 °F 100% 29.83 in 5.0 mi Calm Calm - N/A Rain Light Freezing Rain
10:10 PM 32.0 °F - 32.0 °F 100% 29.82 in 6.0 mi Calm Calm - N/A Rain Light Freezing Rain
10:30 PM 32.0 °F - 32.0 °F 100% 29.82 in 6.0 mi Calm Calm - N/A Rain Light Freezing Rain
10:35 PM 32.0 °F - 32.0 °F 100% 29.81 in 5.0 mi Calm Calm - N/A Rain Light Freezing Rain
10:37 PM 32.0 °F - 32.0 °F 100% 29.81 in 6.0 mi Calm Calm - N/A Rain Light Freezing Rain
10:47 PM 32.0 °F - 32.0 °F 100% 29.80 in 6.0 mi Calm Calm - N/A Rain Light Freezing Rain
10:52 PM 32.0 °F - 32.0 °F 100% 29.80 in 6.0 mi Calm Calm - N/A Rain Light Freezing Rain
10:57 PM 32.0 °F - 32.0 °F 100% 29.80 in 5.0 mi Calm Calm - N/A Rain Light Freezing Rain
10:58 PM 31.5 °F - 31.3 °F 99% 29.83 in 5.0 mi Calm Calm - 0.05 in Rain Light Freezing Rain
11:02 PM 32.0 °F - 32.0 °F 100% 29.81 in 5.0 mi Calm Calm - N/A Rain Light Freezing Rain
11:03 PM 32.0 °F - 32.0 °F 100% 29.81 in 5.0 mi Calm Calm - N/A   Overcast
11:05 PM 32.0 °F - 32.0 °F 100% 29.81 in 5.0 mi Calm Calm - N/A   Overcast
11:10 PM 32.0 °F - 32.0 °F 100% 29.81 in 5.0 mi Calm Calm - N/A   Overcast
11:15 PM 32.0 °F - 32.0 °F 100% 29.80 in 5.0 mi Calm Calm - N/A   Overcast
11:35 PM 32.0 °F - 32.0 °F 100% 29.78 in 5.0 mi Calm Calm - N/A   Overcast
11:42 PM 32.0 °F - 32.0 °F 100% 29.78 in 6.0 mi Calm Calm - N/A Rain Light Freezing Rain
11:52 PM 32.0 °F - 32.0 °F 100% 29.77 in 6.0 mi Calm Calm - N/A Rain Light Freezing Rain
11:58 PM 31.3 °F - 31.1 °F 99% 29.82 in 6.0 mi Calm Calm - 0.07 in Rain Light Freezing Rain